Weather History for KFOT - November, 2013

Change the Weather History Date:

Monday, November 25, 2013

  Actual Average (KEKA) Record (KEKA)
Temperature  
Mean Temperature 48 °F 49 °F  
Max Temperature 62 °F 57 °F 70 °F (1977)
Min Temperature 35 °F 42 °F 30 °F (2010)
Degree Days  
Heating Degree Days 16 16  
Month to date heating degree days 347  
Since 1 July heating degree days 1341  
Cooling Degree Days 0 0  
Month to date cooling degree days 0  
Year to date cooling degree days 0  
Moisture  
Dew Point 37 °F    
Average Humidity 72    
Maximum Humidity 87    
Minimum Humidity 39    
Precipitation  
Precipitation 0.00 in 0.23 in 1.56 in (1916)
Month to date precipitation 4.45  
Year to date precipitation 31.05  
Since 1 July precipitation 7.77  
Snow  
Snow 0.00 in 0.00 in 0.00 in (2002)
Month to date snowfall 0.0  
Since 1 July snowfall 0.0  
Since 1 September snowfall 0.0  
Snow Depth -    
Sea Level Pressure  
Sea Level Pressure 30.28 in    
Wind  
Wind Speed 9 mph (SSE)    
Max Wind Speed 13 mph    
Max Gust Speed -    
Visibility 10 miles    
Events      
T = Trace of Precipitation, MM = Missing Value Source: NWS Daily Summary

Daily Weather History Graph

Daily Weather History Graph

Search for Another Location

Airport or City:

Trip Planner

Search our weather history database for the weather conditions in past years. The results will help you decide how hot, cold, wet, or windy it might be!

Date:

Astronomy

Nov. 25, 2013 Rise Set
Actual Time 7:14 AM PST 4:52 PM PST
Civil Twilight 6:44 AM PST 5:22 PM PST
Nautical Twilight 6:11 AM PST 5:55 PM PST
Astronomical Twilight 5:38 AM PST 6:28 PM PST
Moon No Moon Rise 12:33 PM PST (11/25)
Length of Visible Light 10h 37m
Length of Day
9h 37m
Waning Gibbous, 50% of the Moon is Illuminated
Nov 25
Waning Gibbous
Dec 2
New
Dec 9
First Quarter
Dec 17
Full
Dec 25
Last Quarter

Hourly Weather History & Observations

Time (PST) Temp. Windchill Dew Point Humidity Pressure Visibility Wind Dir Wind Speed Gust Speed Precip Events Conditions
12:15 AM 39.2 °F 32.5 °F 35.6 °F 87% 30.25 in 10.0 mi SE 10.4 mph - N/A   Unknown
12:35 AM 39.2 °F 33.0 °F 35.6 °F 87% 30.25 in 10.0 mi SE 9.2 mph - N/A   Unknown
12:55 AM 39.2 °F 32.5 °F 33.8 °F 81% 30.26 in 10.0 mi SE 10.4 mph - N/A   Unknown
1:15 AM 37.4 °F 29.8 °F 33.8 °F 87% 30.26 in 10.0 mi SE 11.5 mph - N/A   Unknown
1:35 AM 39.2 °F 32.5 °F 33.8 °F 81% 30.26 in 10.0 mi SE 10.4 mph - N/A   Unknown
1:55 AM 41.0 °F 34.3 °F 32.0 °F 70% 30.26 in 10.0 mi ESE 11.5 mph - N/A   Unknown
2:15 AM 39.2 °F 33.0 °F 32.0 °F 75% 30.26 in 10.0 mi SE 9.2 mph - N/A   Unknown
2:35 AM 37.4 °F 30.3 °F 32.0 °F 81% 30.25 in 10.0 mi SE 10.4 mph - N/A   Unknown
2:55 AM 39.2 °F 32.0 °F 32.0 °F 75% 30.25 in 10.0 mi ESE 11.5 mph - N/A   Unknown
3:15 AM 39.2 °F 32.5 °F 32.0 °F 75% 30.25 in 10.0 mi SE 10.4 mph - N/A   Unknown
3:35 AM 39.2 °F 32.5 °F 32.0 °F 75% 30.25 in 10.0 mi SE 10.4 mph - N/A   Unknown
3:55 AM 39.2 °F 32.0 °F 32.0 °F 75% 30.25 in 10.0 mi SE 11.5 mph - N/A   Unknown
4:15 AM 37.4 °F 30.8 °F 32.0 °F 81% 30.26 in 10.0 mi SSE 9.2 mph - N/A   Unknown
4:35 AM 39.2 °F 32.0 °F 32.0 °F 75% 30.26 in 10.0 mi SE 11.5 mph - N/A   Unknown
4:55 AM 39.2 °F 33.0 °F 32.0 °F 75% 30.26 in 10.0 mi SE 9.2 mph - N/A   Unknown
5:15 AM 39.2 °F 33.0 °F 32.0 °F 75% 30.26 in 10.0 mi SE 9.2 mph - N/A   Unknown
5:35 AM 37.4 °F 30.8 °F 32.0 °F 81% 30.26 in 10.0 mi SE 9.2 mph - N/A   Unknown
5:55 AM 37.4 °F 29.3 °F 32.0 °F 81% 30.27 in 10.0 mi SE 12.7 mph - N/A   Unknown
6:15 AM 35.6 °F 28.0 °F 32.0 °F 87% 30.27 in 10.0 mi SE 10.4 mph - N/A   Unknown
6:35 AM 37.4 °F 30.3 °F 32.0 °F 81% 30.28 in 10.0 mi SE 10.4 mph - N/A   Unknown
6:55 AM 37.4 °F 29.8 °F 32.0 °F 81% 30.29 in 10.0 mi SE 11.5 mph - N/A   Unknown
7:15 AM 35.6 °F 27.5 °F 32.0 °F 87% 30.28 in 10.0 mi SE 11.5 mph - N/A   Unknown
7:35 AM 37.4 °F 30.3 °F 32.0 °F 81% 30.29 in 10.0 mi SE 10.4 mph - N/A   Unknown
7:55 AM 37.4 °F 30.3 °F 32.0 °F 81% 30.30 in 10.0 mi SE 10.4 mph - N/A   Unknown
8:15 AM 37.4 °F 30.3 °F 32.0 °F 81% 30.31 in 10.0 mi SE 10.4 mph - N/A   Unknown
8:35 AM 39.2 °F 33.0 °F 32.0 °F 75% 30.31 in 10.0 mi SSE 9.2 mph - N/A   Unknown
8:55 AM 41.0 °F 35.2 °F 32.0 °F 70% 30.32 in 10.0 mi SE 9.2 mph - N/A   Unknown
9:15 AM 41.0 °F 35.2 °F 33.8 °F 76% 30.32 in 10.0 mi SSE 9.2 mph - N/A   Unknown
9:35 AM 44.6 °F 39.2 °F 33.8 °F 66% 30.32 in 10.0 mi SSE 10.4 mph - N/A   Unknown
9:55 AM 46.4 °F 42.4 °F 35.6 °F 66% 30.33 in 10.0 mi SSE 8.1 mph - N/A   Unknown
10:15 AM 48.2 °F - 35.6 °F 62% 30.32 in 10.0 mi SSE 8.1 mph - N/A   Unknown
10:35 AM 50.0 °F - 35.6 °F 58% 30.32 in 10.0 mi SSE 5.8 mph - N/A   Unknown
10:55 AM 50.0 °F - 35.6 °F 58% 30.32 in 10.0 mi South 5.8 mph - N/A   Unknown
11:15 AM 53.6 °F - 35.6 °F 51% 30.31 in 10.0 mi South 5.8 mph - N/A   Unknown
11:35 AM 55.4 °F - 35.6 °F 47% 30.30 in 10.0 mi SSW 5.8 mph - N/A   Unknown
11:55 AM 55.4 °F - 35.6 °F 47% 30.30 in 10.0 mi SSE 3.5 mph - N/A   Unknown
12:15 PM 57.2 °F - 35.6 °F 44% 30.29 in 10.0 mi Calm Calm - N/A   Unknown
12:35 PM 59.0 °F - 35.6 °F 42% 30.29 in 10.0 mi Calm Calm - N/A   Unknown
12:55 PM 59.0 °F - 37.4 °F 45% 30.28 in 10.0 mi Calm Calm - N/A   Unknown
1:15 PM 60.8 °F - 37.4 °F 42% 30.28 in 10.0 mi West 3.5 mph - N/A   Unknown
1:35 PM 62.6 °F - 37.4 °F 39% 30.27 in 10.0 mi NW 3.5 mph - N/A   Unknown
1:55 PM 59.0 °F - 39.2 °F 48% 30.27 in 10.0 mi WNW 6.9 mph - N/A   Unknown
2:15 PM 59.0 °F - 39.2 °F 48% 30.27 in 10.0 mi WNW 5.8 mph - N/A   Unknown
2:35 PM 59.0 °F - 41.0 °F 51% 30.26 in 10.0 mi WNW 6.9 mph - N/A   Unknown
2:55 PM 57.2 °F - 41.0 °F 55% 30.26 in 10.0 mi WNW 5.8 mph - N/A   Unknown
3:15 PM 57.2 °F - 41.0 °F 55% 30.26 in 10.0 mi WNW 5.8 mph - N/A   Unknown
3:35 PM 57.2 °F - 44.6 °F 63% 30.26 in 10.0 mi WNW 5.8 mph - N/A   Unknown
3:55 PM 55.4 °F - 46.4 °F 72% 30.26 in 10.0 mi West 8.1 mph - N/A   Unknown
4:15 PM 53.6 °F - 46.4 °F 77% 30.26 in 10.0 mi WNW 9.2 mph - N/A   Unknown
4:35 PM 53.6 °F - 44.6 °F 72% 30.26 in 10.0 mi WNW 6.9 mph - N/A   Unknown
4:55 PM 50.0 °F - 44.6 °F 82% 30.26 in 10.0 mi WNW 3.5 mph - N/A   Unknown
5:15 PM 50.0 °F - 42.8 °F 76% 30.26 in 10.0 mi West 3.5 mph - N/A   Unknown
5:35 PM 50.0 °F - 41.0 °F 71% 30.26 in 10.0 mi SW 3.5 mph - N/A   Unknown
5:55 PM 50.0 °F - 44.6 °F 82% 30.27 in 10.0 mi Calm Calm - N/A   Unknown
6:15 PM 50.0 °F - 44.6 °F 82% 30.27 in 10.0 mi Calm Calm - N/A   Unknown
6:35 PM 48.2 °F - 42.8 °F 82% 30.27 in 10.0 mi SE 4.6 mph - N/A   Unknown
6:55 PM 46.4 °F 43.5 °F 42.8 °F 87% 30.27 in 10.0 mi SSE 5.8 mph - N/A   Unknown
7:15 PM 46.4 °F 42.4 °F 41.0 °F 81% 30.27 in 10.0 mi ESE 8.1 mph - N/A   Unknown
7:35 PM 46.4 °F 42.4 °F 41.0 °F 81% 30.27 in 10.0 mi SE 8.1 mph - N/A   Unknown
7:55 PM 44.6 °F 39.7 °F 39.2 °F 81% 30.27 in 10.0 mi ESE 9.2 mph - N/A   Unknown
8:15 PM 44.6 °F 39.2 °F 39.2 °F 81% 30.26 in 10.0 mi ESE 10.4 mph - N/A   Unknown
8:35 PM 42.8 °F 38.0 °F 39.2 °F 87% 30.27 in 10.0 mi SE 8.1 mph - N/A   Unknown
8:55 PM 44.6 °F 40.7 °F 39.2 °F 81% 30.27 in 10.0 mi SSE 6.9 mph - N/A   Unknown
9:15 PM 44.6 °F 41.4 °F 39.2 °F 81% 30.27 in 10.0 mi SSE 5.8 mph - N/A   Unknown
9:35 PM 44.6 °F 40.7 °F 39.2 °F 81% 30.27 in 10.0 mi South 6.9 mph - N/A   Unknown
9:55 PM 44.6 °F 39.7 °F 37.4 °F 76% 30.27 in 10.0 mi ESE 9.2 mph - N/A   Unknown
10:15 PM 44.6 °F 39.7 °F 37.4 °F 76% 30.27 in 10.0 mi ESE 9.2 mph - N/A   Unknown
10:35 PM 44.6 °F 39.7 °F 37.4 °F 76% 30.27 in 10.0 mi ESE 9.2 mph - N/A   Unknown
10:55 PM 44.6 °F 40.7 °F 37.4 °F 76% 30.28 in 10.0 mi SSE 6.9 mph - N/A   Unknown
11:15 PM 44.6 °F 41.4 °F 37.4 °F 76% 30.28 in 10.0 mi ESE 5.8 mph - N/A   Unknown
11:35 PM 44.6 °F 40.2 °F 37.4 °F 76% 30.28 in 10.0 mi ESE 8.1 mph - N/A   Unknown
11:55 PM 44.6 °F 40.2 °F 37.4 °F 76% 30.27 in 10.0 mi SE 8.1 mph - N/A   Unknown